星链-4199 (STARLINK-4199 )

导读

STARLINK-4199是美国SpaceX公司星链(Starlink)卫星互联网项目中的一员,于2022年6月17日发射入轨。作为低轨通信卫星,它属于星链星座组网的组成部分,旨在为全球偏远、缺乏基础设施的区域提供低延迟、高速宽带互联网服务,单星配备霍尔推进器与自主避撞系统,服役结束后会主动离轨坠入大气层烧毁。

Basic Information
目录编号:
52857
目录名称:
STARLINK-4199
国际标识:
2022-062AD
轨道中心:
EARTH
卫星名称:
星链-4199
卫星全名:
星链-4199 (STARLINK-4199 )
卫星状态:
在轨 (已飞行1540 天)
发射日期:
2022-06-17 UTC
国别 :
美国 (US)
星等 :
--
Orbit Information
数据来源 国际轨道数据
星历时间: 2026-09-02T21:11:36+0800
1天前
查看轨道信息
半长轴: 6841.406km
偏心率: 0.0001216
轨道倾角: 53.159°
近地点辐角 67.566°
升交点赤经 301.985°
平近点角 292.547°
近地点: 462.437km
远地点: 464.101km
周期: 93.859分钟
每日圈数: 15.342099
Detailed Information
固有亮度:
5
最大亮度:
2.5
卫星平台:
Starlink v1.5
覆盖范围:
全球
运营商:
太空探索技术公司
运营商所在国:
美国
制造商(研发单位):
太空探索技术公司
制造商所在国:
美国
使用方式:
暂无
Satellite Introduction
星链(Starlink)计划是由太空探索技术公司(SpaceX)提出的一个巨型低轨卫星互联网星座项目,计划在2019年至2024年间在太空搭建由约1.2万颗卫星组成的“星链”网络,其中1584颗将部署在地球上空550千米处的近地轨道,并从2020年开始工作。该卫星仍在工作。
2D Orbit Map
3D Orbit Map
Orbit Altitude Analysis Chart
Orbit Inclination Analysis Chart
Orbit Comprehensive Analysis Chart
View Comprehensive Chart
Conjunction Data List
Event ID Objects TCA Miss Dist (km) Collision Risk Probability Collision Risk Index (CRI) Action
CDM_260903-112105-285706-936021
2026-09-03T
11:21:40+0000
0.153 km
中距离
8.196649E-4 高风险 0.93
CDM_260904-044105-285705-996021
2026-09-04T
04:41:31+0000
0.452 km
远距离
8.50879E-5 中风险 0.74
CDM_260904-231805-285706-936021
2026-09-04T
23:18:54+0000
0.680 km
远距离
5.941971E-5 中风险 0.7
CDM_260903-060305-285706-167722
2026-09-03T
06:03:27+0000
0.725 km
远距离
3.456658E-5 中风险 0.66
CDM_260904-182505-285706-620321
2026-09-04T
18:25:14+0000
1.052 km
极远距离
1.96485E-5 中风险 0.61
CDM_260904-165105-285706-620321
2026-09-04T
16:51:27+0000
1.198 km
极远距离
1.249821E-5 中风险 0.57
CDM_260903-034005-285705-996021
2026-09-03T
03:40:46+0000
0.980 km
远距离
7.639816E-6 低风险 0.53
CDM_260904-114505-285706-167721
2026-09-04T
11:45:34+0000
1.208 km
极远距离
6.17216E-6 低风险 0.51
CDM_260904-083605-285705-996021
2026-09-04T
08:36:00+0000
1.052 km
极远距离
5.998486E-6 低风险 0.51
CDM_260903-051405-285705-996021
2026-09-03T
05:14:34+0000
1.056 km
极远距离
5.923466E-6 低风险 0.5